Lid_Strength_Index
7 8 8 7 7 7 8 7 10 8 8 6 7 6 6 6 5 6 5 5 4 4 3 3 2 2 2 1 1 1 1 1 1 0 -0 -0 -0 -0 -0 -0 -0 -0 -0 0
9 8 8 9 7 7 7 7 7 7 8 6 5 5 6 6 6 6 5 5 4 3 3 3 2 2 1 1 1 0 1 1 1 0 0 0 -0 -0 -0 -0 -0 -0 -0 -0
10 9 9 11 8 8 7 7 7 9 7 6 7 6 6 5 5 5 6 5 5 4 3 3 2 2 2 1 1 1 1 1 1 1 0 0 -0 0 0 0 -0 0 -0 -0
10 10 14 10 7 7 8 8 7 8 7 6 6 5 5 5 6 6 5 4 3 3 3 2 2 2 1 1 1 1 1 1 1 1 1 0 0 0 0 0 0 0 0 -0
11 11 9 10 8 9 9 9 7 7 7 6 6 6 7 5 4 4 4 3 3 2 2 2 2 2 2 2 2 1 1 1 1 1 1 1 1 1 1 1 1 0 0 1
10 12 13 9 8 6 7 11 6 6 6 7 6 9 9 5 4 4 3 3 3 3 3 3 3 2 2 3 2 2 1 1 1 2 2 4 5 5 2 3 3 3 4 4
10 11 9 8 7 6 12 11 6 5 5 6 7 7 5 4 4 3 3 3 3 4 4 4 4 3 6 6 6 4 5 6 6 6 6 7 7 8 8 6 5 5 6 6
10 11 12 6 7 10 8 6 5 5 5 6 5 5 5 4 4 4 4 3 4 5 5 4 4 6 7 8 7 8 7 7 8 8 7 7 8 8 9 9 9 10 10 11
9 10 7 6 7 5 5 5 5 5 5 5 5 5 5 5 5 4 4 5 5 5 6 6 6 7 8 8 8 9 8 8 9 9 9 9 9 9 9 9 10 10 11 12
9 8 7 6 5 5 4 5 4 4 4 4 5 5 5 5 5 5 5 5 5 6 7 8 6 6 7 6 7 7 8 8 8 8 8 7 7 7 9 9 10 10 11 11
8 7 6 6 5 5 4 4 4 3 4 4 4 5 5 5 5 5 5 6 6 6 7 7 7 6 5 5 5 6 6 6 6 7 8 9 9 8 8 9 9 10 10 10
8 6 5 6 5 4 5 4 4 4 5 4 4 5 4 4 4 4 5 4 5 6 6 6 6 5 4 3 4 4 4 5 6 7 7 8 9 10 11 11 12 13 13 11
6 4 5 4 4 3 4 4 3 4 4 4 3 3 3 4 4 5 4 4 5 6 5 5 4 4 3 3 4 4 5 6 7 8 9 10 10 9 10 11 12 13 13 13
4 4 6 5 6 3 3 3 3 3 3 3 3 3 3 4 4 5 6 6 5 5 5 4 4 5 5 5 4 4 5 8 7 7 7 6 6 6 6 6 6 7 10 9
4 4 4 3 3 4 3 3 4 4 4 4 3 3 3 3 4 5 5 5 4 5 5 4 4 3 2 2 3 3 4 4 4 4 4 5 4 4 4 5 5 6 7 8
4 4 4 4 5 5 4 4 4 5 4 5 5 3 2 2 4 4 5 5 6 5 4 3 3 3 2 2 2 3 2 3 3 3 3 3 4 4 4 4 4 4 5 6
5 6 5 5 5 5 5 4 4 4 4 5 5 5 5 5 5 6 5 4 4 4 3 3 3 2 1 1 1 2 2 2 4 3 3 4 4 3 3 3 3 4 5 7
3 3 3 3 4 5 5 4 3 4 6 5 5 6 7 5 4 4 4 3 3 3 2 1 1 1 1 0 0 1 2 2 2 2 3 3 3 3 3 3 4 4 6 7
3 3 3 3 3 4 4 4 4 5 5 5 5 5 4 3 3 3 3 3 3 3 2 1 2 -0 -0 0 1 2 2 1 1 1 1 4 2 2 3 3 4 5 5 5
3 3 3 3 3 3 4 4 5 5 5 5 5 5 5 4 3 3 3 3 3 3 3 3 1 0 2 3 2 1 1 1 2 2 3 3 3 3 4 6 4 4 5 4
4 3 4 4 4 4 5 5 5 6 5 4 5 5 4 4 3 3 3 5 3 2 3 3 2 4 2 1 2 1 1 1 2 3 3 3 3 3 4 4 4 4 4 4
4 4 4 4 5 5 5 5 5 5 5 5 4 4 3 4 3 3 2 3 4 6 5 3 2 3 2 3 1 1 1 1 1 2 2 3 3 3 3 3 3 4 3 3
4 4 5 5 5 5 4 4 4 4 4 3 3 3 4 4 3 5 7 7 6 5 2 2 8 5 4 1 1 1 2 2 2 2 2 2 3 3 3 4 3 3 3 3
4 4 4 4 4 4 4 4 4 3 3 3 4 4 4 6 4 4 6 7 8 5 3 4 5 6 7 2 2 3 3 3 3 2 3 6 2 3 3 3 4 3 3 4
4 4 5 5 4 4 4 3 3 3 4 3 3 3 4 3 4 3 3 4 7 4 3 7 7 6 3 2 3 2 2 2 2 2 2 3 3 3 3 3 3 3 3 3
5 5 4 4 4 3 3 2 3 3 4 4 4 4 5 4 4 3 3 4 4 5 3 4 3 4 3 3 2 2 2 3 3 3 3 3 3 3 3 3 3 3 3 2
4 5 4 3 3 3 3 3 3 3 3 4 5 5 3 3 3 4 5 4 4 4 3 4 4 4 3 3 3 2 2 2 5 3 3 3 3 3 3 3 2 2 2 2